Location: Albany
(35.0000°S, 118.0000°E)
Time: 21:18:08
(UTC-05:00)

ERS-1 Rocket - Visible Passes

Search period start: 23 February 2018 00:00
Search period end: 05 March 2018 00:00
Orbit: 754 x 757 km, 98.6° (Epoch: 22 February)

Date Brightness Start Highest point End Pass type
(mag) Time Alt. Az. Time Alt. Az. Time Alt. Az.
23 Feb 5.4 09:44:22 10° S 09:45:57 19° SSW 09:45:57 19° SSW visible
24 Feb 5.2 09:04:28 10° SSE 09:05:49 19° SSE 09:05:49 19° SSE visible
25 Feb 5.4 08:25:20 10° SSE 08:25:40 12° SSE 08:25:40 12° SSE visible
25 Feb 5.7 10:04:40 10° SSW 10:05:40 14° SSW 10:05:40 14° SSW visible
26 Feb 5.4 09:24:21 10° S 09:25:32 17° S 09:25:32 17° S visible
27 Feb 5.4 08:44:49 10° SSE 08:45:23 13° SSE 08:45:23 13° SSE visible
28 Feb 5.7 09:44:23 10° S 09:45:13 14° SSW 09:45:13 14° SSW visible
01 Mar 5.5 09:04:29 10° SSE 09:05:05 13° SSE 09:05:05 13° SSE visible
02 Mar 6.0 10:04:40 10° SSW 10:04:56 11° SSW 10:04:56 11° SSW visible
03 Mar 5.7 09:24:22 10° S 09:24:47 12° S 09:24:47 12° S visible
